Regional Weather Roundup
Issued by NWS

Home | Current Version | Previous Version | Text Only | Print | Product List | Glossary On
Versions: 1 2 3 4 5 6 7 8 9 10 11 12 13 14 15 16 17 18 19 20 21 22 23 24 25 26 27 28 29 30 31 32 33 34 35 36 37 38 39 40 41 42 43 44 45 46 47 48 49 50
508
ASUS46 KSTO 170304
RWRCA

NORTHERN AND CENTRAL CA REGIONAL WEATHER ROUNDUP
NATIONAL WEATHER SERVICE SACRAMENTO CA
800 PM PDT WED AUG 16 2017

NOTE: FAIR INDICATES FEW OR NO CLOUDS BELOW 12,000 FEET WITH NO
SIGNIFICANT WEATHER AND/OR OBSTRUCTIONS TO VISIBILITY.

CAZ001-003-170400-
NORTHWEST AREA

CITY           SKY/WX    TMP DP  RH WIND       PRES   REMARKS
CRESCENT CITY  CLEAR     59  53  80 N15G25    29.91S
UKIAH          CLEAR     80  50  34 N8        29.90R
$$

CAZ006-505>513-170400-
BAY AREA

CITY           SKY/WX    TMP DP  RH WIND       PRES   REMARKS
SANTA ROSA     CLEAR     62  55  77 S12       29.93R
SAN RAFAEL     N/A       MM  MM  MM MISG
NAPA           CLEAR     65  58  78 S16       29.92R
CONCORD        CLEAR     72  56  57 W10       29.90R
OAKLAND CITY   N/A       MM  MM  MM MISG
OAKLAND        CLEAR     62  58  86 NW15      29.94R
SAN FRAN CITY  N/A       62  MM  78 MISG
SAN FRAN ARPT  PTCLDY    64  55  72 NW12      29.93R
LIVERMORE      CLEAR     70  56  61 W10       29.90R
HAYWARD        CLEAR     64  53  67 NW13      29.94R
REDWOOD CITY   N/A       72  MM  59 MISG
MOFFETT ARPT   CLEAR     67  59  75 NW9       29.94R
SAN JOSE ARPT  PTCLDY    69  58  67 W10       29.93R
$$
CAZ034-037-514>518-170400-
CENTRAL COAST

CITY           SKY/WX    TMP DP  RH WIND       PRES   REMARKS
WATSONVILLE    CLEAR     60  56  86 SW6       29.98S
SALINAS        CLOUDY    64  56  75 NW8       29.97R
MONTEREY       MOCLDY    63  56  78 SW7       29.98S
SAN LUIS OBISP CLEAR     63  54  72 NW13      29.97R
SANTA MARIA    CLEAR     61  54  77 NW8       29.98R
$$
CAZ015-016-170400-
NORTHERN SACRAMENTO VALLEY

CITY           SKY/WX    TMP DP  RH WIND       PRES   REMARKS
REDDING        CLEAR     86  62  44 S10       29.82R
RED BLUFF      CLEAR     84  62  47 S8        29.84R
OROVILLE       CLEAR     85  59  41 S7        29.86R
$$
CAZ016>018-170400-
SOUTHERN SACRAMENTO VALLEY

CITY           SKY/WX    TMP DP  RH WIND       PRES   REMARKS
AUBURN         CLEAR     81  57  44 S3        29.93R
BEALE AFB      CLEAR     81  61  50 S6        29.83R
LINCOLN        FAIR      82  52  34 SW7       29.84R
MARYSVILLE     CLEAR     82  58  43 S8        29.84S
SAC INTL ARPT  CLEAR     80  59  48 S10       29.83S
MATHER AIRPORT CLEAR     82  54  36 SW12      29.85S
DOWNTOWN SAC   N/A       82  MM  MM MISG
SAC EXEC ARPT  CLEAR     76  59  55 S8        29.85S
VACAVILLE      CLEAR     80  58  46 SW10      29.85S
TRAVIS AFB     CLEAR     70  56  61 SW20G25   29.84S
$$
CAZ019>021-170400-
SAN JOAQUIN VALLEY

CITY           SKY/WX    TMP DP  RH WIND       PRES   REMARKS
STOCKTON       CLEAR     80  58  46 NW12      29.85S
MODESTO        CLEAR     85  57  38 NW8       29.84S
MERCED         CLEAR     83  57  41 W6        29.85R
LEMOORE        CLEAR     81  54  39 N7        29.86S
FRESNO         PTCLDY    85  56  37 NW7       29.85S
HANFORD        CLEAR     85  56  37 W5        29.86S
PORTERVILLE      N/A     83  61  47 W5        29.87S
BAKERSFIELD    CLEAR     85  56  37 NW6       29.87R
$$
CAZ011-012-071-170400-
NORTHERN MOUNTAINS

CITY           SKY/WX    TMP DP  RH WIND       PRES   REMARKS
YREKA          CLEAR     82  45  27 N14G21    30.03R
MOUNT SHASTA   CLEAR     79  41  25 VRB7      30.05R
$$
CAZ011-012-071-170400-
SIERRA NEVADA MTNS

CITY           SKY/WX    TMP DP  RH WIND       PRES   REMARKS
BLUE CANYON    MOCLDY    68  56  65 NE5       30.16S
TRUCKEE        LGT RAIN  64  52  63 S6        30.19S
TAHOE VLY ARPT MOCLDY    64  47  53 N3        30.21R
MAMMOTH LAKES  CLOUDY    69  35  29 N5        30.25R
$$




USA.gov is the U.S. government's official web portal to all federal, state and local government web resources and services.